STARLINK-6102 (56093 NORAD) Tracking and Keplerian Element Data

This shows tracking and keplerian element data for the satellite.

Feedback or suggestion? Click here.




ElementValue
Catalog56093
NameSTARLINK-6102
Epoch Orbit652
Epoch Day127.25001157
Epoch Year2023
RAAN38.0593
Inclination43.0012
Eccentricity0.0001434
Argument of Perigee265.8371
Mean Anonmoly8.1681
Mean Motion15.26893035
Decay Rate-0.00909641
L11 56093U 23046A 23127.25001157 -.00909641 00000+0 -36365-1 0 9998
L22 56093 43.0012 38.0593 0001434 265.8371 8.1681 15.26893035 6526



Live tracking and technical data element details for STARLINK-6102 (NORAD 56093). STARLINK-6102 can be tracked NOW for your location showing map with azimuth and elevation plus other details from your city location.







IsCatalogInMostPopularTable: catalog: 56093, numindb: 1
Update: records affected: 1



GetName: 56093 STARLINK-6102

Hit Count: updated at: Sat, 03 Jun 2023 18:43:22 GMT